Regional Weather Roundup
Issued by NWS Northern Indiana

Home | Current Version | Previous Version | Graphics & Text | Print | Product List | Glossary On
Versions: 1 2 3 4 5 6 7 8 9 10 11 12 13 14 15 16 17 18 19 20 21 22 23 24 25 26 27 28 29 30 31 32 33 34 35 36 37 38 39 40 41 42 43 44 45 46 47 48 49 50
000
ASUS43 KIWX 020400
RWRIWX

KIWX WEATHER ROUNDUP
NATIONAL WEATHER SERVICE NORTHERN INDIANA
1200 AM EDT TUE SEP 02 2014

NOTE: "FAIR" INDICATES FEW OR NO CLOUDS BELOW 12,000 FEET WITH NO
SIGNIFICANT WEATHER AND/OR OBSTRUCTIONS TO VISIBILITY.

* THESE STATIONS ARE NOT UNDER NWS QUALITY CONTROL. THEY ALSO MAY NOT
  REPORT WEATHER SUCH AS PRECIPITATION OR FOG.

INZ001>027-020500-
NORTHERN INDIANA

CITY           SKY/WX    TMP DP  RH WIND       PRES   REMARKS
VALPARAISO     MOCLDY    71  65  81 SW7       29.87S
KNOX*          MOCLDY    69  65  85 SW5       29.87S
SOUTH BEND     PTCLDY    72  66  81 SW7       29.87R
GOSHEN         CLEAR     71  66  84 SW7       29.88R
MONTICELLO*    PTCLDY    68  65  92 S3        29.89S
ANGOLA*        CLEAR     72  63  73 SW6       29.88S
FORT WAYNE     PTCLDY    70  65  84 SW7       29.91R
PERU/GRISSOM   PTCLDY    66  66 100 SW6       29.91R

$$
INZ028>050-020500-
CENTRAL INDIANA

CITY           SKY/WX    TMP DP  RH WIND       PRES   REMARKS
LAFAYETTE      MOCLDY    68  66  93 CALM      29.89S
KOKOMO*        PTCLDY    70  64  83 SW7       29.91S
MUNCIE*        CLEAR     73  68  84 SW6       29.93R
INDIANAPOLIS   PTCLDY    71  67  87 SW8       29.92R

$$
MIZ043>046-050>051-056>058-064>065-071>073-077>080-020500-
SOUTHWEST LOWER MICHIGAN

CITY           SKY/WX    TMP DP  RH WIND       PRES   REMARKS
BATTLE CREEK   CLEAR     72  65  78 SW12      29.85S
BENTON HARBOR  PTCLDY    74  66  76 SW14      29.84R
COLDWATER*     CLEAR     71  68  89 SW5       29.86S
HILLSDALE*     CLEAR     72  69  90 SW3       29.88S
HOLLAND        CLOUDY    73  68  84 SW8       29.82R
GRAND RAPIDS   MOCLDY    72  69  90 SW8       29.82R
KALAMAZOO      CLEAR     71  65  81 SW7       29.84S
STURGIS*         N/A     70  66  88 SW6       29.87R
THREE RIVERS*  FAIR      72  68  86 SW5       29.87R

$$
OHZ001>008-015>018-024>025-020500-
NORTHWEST OHIO

CITY           SKY/WX    TMP DP  RH WIND       PRES   REMARKS
DEFIANCE       MOCLDY    75  67  76 VRB3      29.89R
FINDLAY        PTCLDY    74  70  87 SW9       29.90R
TOLEDO EXPRESS MOCLDY    75  69  81 SW9       29.87R
TOLEDO METCALF CLEAR     74  69  85 SW7       29.88R
LIMA           MOCLDY    76  70  82 SW10      29.92R

$$
&&



USA.gov is the U.S. government's official web portal to all federal, state and local government web resources and services.